| time (UTC) | temp F | wind direction | speed MPH | gust MPH | rain 1hr in | rain 24hr in | rain mn in | humidity % | barometer mb |
| 20260507114512 | 37 | 220 | 7.0 | 0.0 | 0.00 | 0.00 | 0.00 | 87 | 1013.2 |
| 20260507113010 | 37 | 236 | 6.0 | 0.0 | 0.00 | 0.00 | 0.00 | 86 | 1013.3 |
| 20260507110011 | 38 | 230 | 10.0 | 0.0 | 0.00 | 0.00 | 0.00 | 86 | 1013.3 |
| 20260507104507 | 38 | 239 | 9.0 | 0.0 | 0.00 | 0.00 | 0.00 | 86 | 1013.6 |
| 20260507103006 | 37 | 236 | 9.0 | 0.0 | 0.00 | 0.00 | 0.00 | 86 | 1013.6 |
| 20260507101506 | 38 | 229 | 8.0 | 0.0 | 0.00 | 0.00 | 0.00 | 86 | 1013.7 |
| 20260507100008 | 38 | 236 | 8.0 | 0.0 | 0.00 | 0.00 | 0.00 | 85 | 1014.3 |
| 20260507094501 | 38 | 223 | 9.0 | 0.0 | 0.00 | 0.00 | 0.00 | 87 | 1014.5 |
| 20260507093102 | 37 | 219 | 8.0 | 0.0 | 0.00 | 0.00 | 0.00 | 88 | 1014.4 |
| 20260507091559 | 37 | 221 | 7.0 | 0.0 | 0.00 | 0.00 | 0.00 | 88 | 1014.5 |
| 20260507091501 | 37 | 232 | 7.0 | 0.0 | 0.00 | 0.00 | 0.00 | 88 | 1014.5 |
| 20260507090101 | 37 | 241 | 8.0 | 0.0 | 0.00 | 0.00 | 0.00 | 87 | 1014.6 |
| 20260507084605 | 37 | 227 | 7.0 | 0.0 | 0.00 | 0.00 | 0.00 | 87 | 1014.8 |
| 20260507083055 | 37 | 228 | 8.0 | 0.0 | 0.00 | 0.00 | 0.00 | 87 | 1015.0 |
| 20260507081555 | 38 | 233 | 10.0 | 0.0 | 0.00 | 0.00 | 0.00 | 87 | 1015.3 |
| 20260507080054 | 38 | 244 | 9.0 | 0.0 | 0.00 | 0.00 | 0.00 | 87 | 1015.7 |
| 20260507074548 | 38 | 231 | 9.0 | 0.0 | 0.00 | 0.00 | 0.00 | 88 | 1016.0 |
| 20260507073046 | 37 | 239 | 9.0 | 0.0 | 0.00 | 0.00 | 0.00 | 88 | 1016.2 |
| 20260507071547 | 37 | 237 | 9.0 | 0.0 | 0.00 | 0.00 | 0.00 | 89 | 1016.3 |
| 20260507070100 | 37 | 221 | 8.0 | 0.0 | 0.00 | 0.00 | 0.00 | 89 | 1016.6 |
| 20260507064549 | 37 | 211 | 8.0 | 0.0 | 0.00 | 0.00 | 0.00 | 89 | 1016.7 |
| 20260507063038 | 36 | 227 | 7.0 | 0.0 | 0.00 | 0.00 | 0.00 | 89 | 1016.8 |
| 20260507061534 | 36 | 234 | 7.0 | 0.0 | 0.00 | 0.00 | 0.00 | 88 | 1017.1 |
| 20260507060036 | 37 | 239 | 6.0 | 0.0 | 0.00 | 0.00 | 0.00 | 88 | 1017.2 |
| 20260507054529 | 37 | 220 | 7.0 | 0.0 | 0.00 | 0.00 | 0.00 | 88 | 1017.3 |
| 20260507053028 | 37 | 225 | 6.0 | 0.0 | 0.00 | 0.00 | 0.00 | 88 | 1017.5 |
| 20260507051527 | 37 | 222 | 5.0 | 0.0 | 0.00 | 0.00 | 0.00 | 88 | 1017.7 |
| 20260507050038 | 37 | 217 | 5.0 | 0.0 | 0.00 | 0.00 | 0.22 | 88 | 1017.7 |
| 20260507044519 | 38 | 226 | 6.0 | 0.0 | 0.00 | 0.00 | 0.22 | 88 | 1017.8 |
| 20260507043015 | 38 | 238 | 5.0 | 0.0 | 0.00 | 0.00 | 0.22 | 88 | 1017.9 |
| 20260507041512 | 39 | 232 | 5.0 | 0.0 | 0.00 | 0.00 | 0.22 | 87 | 1018.1 |
| 20260507040106 | 39 | 226 | 4.0 | 0.0 | 0.00 | 0.00 | 0.22 | 88 | 1018.1 |
| 20260507034503 | 39 | 220 | 3.0 | 0.0 | 0.00 | 0.00 | 0.22 | 87 | 1018.1 |
| 20260507033058 | 39 | 218 | 4.0 | 0.0 | 0.00 | 0.00 | 0.22 | 87 | 1018.1 |
| 20260507031553 | 40 | 242 | 4.0 | 0.0 | 0.00 | 0.00 | 0.22 | 86 | 1018.0 |
| 20260507030048 | 41 | 202 | 6.0 | 0.0 | 0.00 | 0.00 | 0.22 | 86 | 1018.0 |
| 20260507024546 | 41 | 198 | 7.0 | 0.0 | 0.00 | 0.00 | 0.22 | 86 | 1017.9 |
| 20260507023040 | 42 | 197 | 7.0 | 0.0 | 0.00 | 0.00 | 0.22 | 84 | 1018.0 |
| 20260507021538 | 42 | 198 | 6.0 | 0.0 | 0.00 | 0.00 | 0.22 | 83 | 1018.0 |
| 20260507020045 | 43 | 195 | 6.0 | 0.0 | 0.00 | 0.00 | 0.22 | 81 | 1017.9 |
| 20260507014542 | 45 | 198 | 5.0 | 0.0 | 0.00 | 0.00 | 0.22 | 76 | 1018.0 |
| 20260507013038 | 46 | 205 | 5.0 | 0.0 | 0.00 | 0.00 | 0.22 | 72 | 1017.9 |
| 20260507011541 | 47 | 205 | 4.0 | 0.0 | 0.00 | 0.00 | 0.22 | 70 | 1017.9 |
| 20260507010042 | 47 | 184 | 6.0 | 0.0 | 0.00 | 0.00 | 0.22 | 70 | 1017.8 |
| 20260507004532 | 48 | 208 | 8.0 | 0.0 | 0.00 | 0.00 | 0.22 | 67 | 1017.9 |
| 20260507003031 | 48 | 196 | 4.0 | 0.0 | 0.00 | 0.00 | 0.22 | 68 | 1017.9 |
| 20260507001552 | 48 | 240 | 5.0 | 0.0 | 0.00 | 0.00 | 0.22 | 66 | 1018.1 |
| 20260507000036 | 47 | 274 | 5.0 | 0.0 | 0.00 | 0.00 | 0.22 | 67 | 1018.2 |
| 20260506234534 | 49 | 292 | 5.0 | 0.0 | 0.00 | 0.00 | 0.22 | 65 | 1018.2 |
| 20260506233029 | 49 | 276 | 4.0 | 0.0 | 0.00 | 0.00 | 0.22 | 64 | 1018.3 |
| 20260506231526 | 48 | 292 | 4.0 | 0.0 | 0.00 | 0.00 | 0.22 | 66 | 1018.2 |
| 20260506230028 | 48 | 302 | 5.0 | 0.0 | 0.00 | 0.00 | 0.22 | 68 | 1018.3 |
| 20260506224523 | 47 | 320 | 5.0 | 0.0 | 0.00 | 0.00 | 0.22 | 69 | 1018.3 |
| 20260506223025 | 46 | 300 | 5.0 | 0.0 | 0.00 | 0.00 | 0.22 | 71 | 1018.6 |
| 20260506221522 | 46 | 315 | 6.0 | 0.0 | 0.00 | 0.00 | 0.22 | 71 | 1018.6 |
| 20260506220022 | 46 | 309 | 7.0 | 0.0 | 0.00 | 0.00 | 0.22 | 74 | 1018.8 |
| 20260506213021 | 45 | 11 | 9.0 | 0.0 | 0.00 | 0.00 | 0.22 | 77 | 1019.2 |
| 20260506211535 | 45 | 325 | 8.0 | 0.0 | 0.00 | 0.00 | 0.22 | 75 | 1019.3 |
| 20260506210030 | 46 | 355 | 7.0 | 0.0 | 0.00 | 0.00 | 0.22 | 71 | 1019.4 |
| 20260506204523 | 47 | 56 | 1.0 | 0.0 | 0.00 | 0.00 | 0.22 | 61 | 1019.5 |
| 20260506203019 | 47 | 150 | 1.0 | 0.0 | 0.00 | 0.00 | 0.22 | 63 | 1019.4 |
| 20260506201518 | 47 | 213 | 3.0 | 0.0 | 0.00 | 0.00 | 0.22 | 62 | 1019.5 |
| 20260506200016 | 47 | 196 | 3.0 | 0.0 | 0.00 | 0.00 | 0.22 | 65 | 1019.4 |
| 20260506194513 | 46 | 74 | 3.0 | 0.0 | 0.00 | 0.00 | 0.22 | 65 | 1019.5 |
| 20260506193009 | 45 | 121 | 4.0 | 0.0 | 0.00 | 0.00 | 0.22 | 69 | 1019.5 |
| 20260506191510 | 45 | 141 | 3.0 | 0.0 | 0.00 | 0.00 | 0.22 | 74 | 1019.5 |
| 20260506190009 | 45 | 84 | 2.0 | 0.0 | 0.00 | 0.00 | 0.22 | 74 | 1019.8 |
| 20260506184508 | 45 | 93 | 2.0 | 0.0 | 0.00 | 0.00 | 0.22 | 75 | 1019.9 |
| 20260506183004 | 44 | 59 | 2.0 | 0.0 | 0.00 | 0.00 | 0.22 | 77 | 1020.1 |
| 20260506181504 | 43 | 49 | 3.0 | 0.0 | 0.00 | 0.00 | 0.22 | 79 | 1020.3 |
| 20260506180002 | 43 | 157 | 3.0 | 0.0 | 0.00 | 0.00 | 0.22 | 80 | 1020.3 |
| 20260506174558 | 42 | 66 | 2.0 | 0.0 | 0.00 | 0.00 | 0.22 | 83 | 1020.3 |
| 20260506173125 | 42 | 100 | 5.0 | 0.0 | 0.00 | 0.00 | 0.22 | 84 | 1020.4 |
| 20260506171556 | 41 | 63 | 2.0 | 0.0 | 0.00 | 0.00 | 0.22 | 86 | 1020.4 |
| 20260506170105 | 41 | 67 | 2.0 | 0.0 | 0.00 | 0.00 | 0.22 | 88 | 1020.3 |
| 20260506164549 | 41 | 68 | 1.0 | 0.0 | 0.00 | 0.00 | 0.22 | 88 | 1020.3 |
| 20260506163054 | 40 | 69 | 0.0 | 0.0 | 0.00 | 0.00 | 0.22 | 89 | 1020.4 |
| 20260506161546 | 40 | 69 | 1.0 | 0.0 | 0.00 | 0.00 | 0.22 | 89 | 1020.3 |
| 20260506160045 | 40 | 69 | 1.0 | 0.0 | 0.00 | 0.00 | 0.21 | 91 | 1020.1 |
| 20260506154600 | 39 | 71 | 1.0 | 0.0 | 0.00 | 0.00 | 0.21 | 92 | 1019.9 |
| 20260506151538 | 39 | 76 | 2.0 | 0.0 | 0.00 | 0.00 | 0.21 | 93 | 1019.7 |
| 20260506150037 | 38 | 81 | 3.0 | 0.0 | 0.00 | 0.00 | 0.21 | 93 | 1019.5 |
| 20260506144542 | 38 | 178 | 2.0 | 0.0 | 0.00 | 0.00 | 0.21 | 93 | 1019.6 |
| 20260506143035 | 38 | 185 | 1.0 | 0.0 | 0.00 | 0.00 | 0.21 | 93 | 1019.5 |
| 20260506141534 | 37 | 185 | 2.0 | 0.0 | 0.00 | 0.00 | 0.21 | 93 | 1019.5 |
| 20260506140036 | 37 | 248 | 0.0 | 0.0 | 0.00 | 0.00 | 0.21 | 93 | 1019.3 |
| 20260506134532 | 37 | 248 | 1.0 | 0.0 | 0.00 | 0.00 | 0.21 | 93 | 1019.3 |
| 20260506133038 | 36 | 248 | 2.0 | 0.0 | 0.00 | 0.00 | 0.21 | 93 | 1019.3 |
| 20260506131529 | 36 | 248 | 2.0 | 0.0 | 0.00 | 0.00 | 0.21 | 93 | 1019.0 |
| 20260506130028 | 36 | 248 | 1.0 | 0.0 | 0.00 | 0.00 | 0.21 | 93 | 1018.9 |
| 20260506124527 | 35 | 248 | 1.0 | 0.0 | 0.00 | 0.00 | 0.21 | 93 | 1018.8 |
| 20260506123026 | 35 | 248 | 1.0 | 0.0 | 0.00 | 0.00 | 0.21 | 93 | 1018.4 |
| 20260506121524 | 35 | 248 | 0.0 | 0.0 | 0.00 | 0.00 | 0.20 | 93 | 1018.1 |
| 20260506120024 | 35 | 248 | 2.0 | 0.0 | 0.00 | 0.00 | 0.20 | 93 | 1018.1 |